This demonstration page uses our WeatherBlox Daily Observations layout. Learn more.

Left ArrowRight Arrow

38.88101, -77.10428

Hourly Observations for March 22, 2019

Temp ( °F °C ) Dew Point ( °F °C ) Humidity (%) Winds ( mph kmh ) Pressure ( in mb ) Visibility ( mi km ) Precip ( " mm )
12:16 am 00:16 Cloudy with Light Rain 44 6.7 39 3.9 83 83 NW 18 30 29.54 1000 9 14.48406 0 0.0254
12:52 am 00:52 Cloudy with Rain 44 6.7 39 3.9 83 83 WNW 25 41 29.53 1000 3 4.82802 0.01 0.254
1:52 am 01:52 Cloudy with Light Rain 44 6.7 38 3.3 79 79 NW 18 30 29.54 1000 10 16.0934 0.02 0.508
2:52 am 02:52 Cloudy with Light Rain 44 6.7 38 3.3 79 79 NW 17 28 29.55 1001 10 16.0934 0.01 0.254
3:52 am 03:52 Cloudy 45 7.2 38 3.3 77 77 NW 17 28 29.55 1001 10 16.0934 0 0.0254
4:52 am 04:52 Cloudy with Light Rain 45 7.2 38 3.3 77 77 NW 17 28 29.57 1001 10 16.0934 0 0.0254
5:52 am 05:52 Cloudy 47 8.3 38 3.3 71 71 WNW 21 33 29.58 1002 10 16.0934 0 0.0254
6:52 am 06:52 Cloudy 47 8.3 35 1.7 63 63 NW 23 37 29.59 1002 10 16.0934 0 0
7:52 am 07:52 Mostly Cloudy 47 8.3 33 0.6 59 59 NW 23 37 29.61 1003 10 16.0934 0 0
8:52 am 08:52 Partly Cloudy 47 8.3 30 -1.1 52 52 NW 25 41 29.63 1003 10 16.0934 0 0
9:52 am 09:52 Mostly Cloudy 47 8.3 30 -1.1 52 52 NW 22 35 29.66 1004 10 16.0934 0 0
10:52 am 10:52 Mostly Cloudy 47 8.3 29 -1.7 50 50 WNW 18 30 29.67 1005 10 16.0934 0 0
11:52 am 11:52 Mostly Cloudy 48 8.9 30 -1.1 50 50 WNW 18 30 29.67 1005 10 16.0934 0 0
12:52 pm 12:52 Mostly Cloudy 53 11.7 32 0 45 45 WNW 20 31 29.65 1004 10 16.0934 0 0
1:52 pm 13:52 Mostly Cloudy 54 12.2 32 0 43 43 WNW 13 20 29.63 1004 10 16.0934 0 0
2:52 pm 14:52 Mostly Cloudy 53 11.7 31 -0.6 43 43 NW 8 13 29.61 1003 10 16.0934 0 0
3:10 pm 15:10 Cloudy with Light Rain 52 11.1 31 -0.6 45 45 W 14 22 29.61 1003 10 16.0934 0 0.0254
3:52 pm 15:52 Cloudy 52 11.1 32 0 47 47 WNW 7 11 29.6 1002 10 16.0934 0 0.0254
4:02 pm 16:02 Cloudy with Light Rain 53 11.7 33 0.6 47 47 WNW 10 17 29.59 1002 10 16.0934 0 0.0254
4:09 pm 16:09 Windy with Storms Likely 52 11.1 33 0.6 49 49 N 28 44 29.62 1003 10 16.0934 0 0.0254
4:12 pm 16:12 Very Windy with Storms Likely 48 8.9 35 1.7 61 61 NNW 40 65 29.65 1004 9 14.48406 0 0.0254
4:16 pm 16:16 Windy with Storms Likely 42 5.6 35 1.7 76 76 NW 29 46 29.66 1004 1 1.60934 0 0.0254
4:22 pm 16:22 Cloudy with Thunderstorms 39 3.9 33 0.6 79 79 WNW 17 28 29.66 1004 4 6.43736 0.03 0.762
4:26 pm 16:26 Cloudy with Thunderstorms 39 3.9 33 0.6 79 79 WNW 17 28 29.66 1004 5 8.0467 0.05 1.27
4:33 pm 16:33 Cloudy with Light Rain 41 5 35 1.7 79 79 NW 16 26 29.65 1004 7 11.26538 0.06 1.524
4:52 pm 16:52 Mostly Cloudy 45 7.2 36 2.2 71 71 WNW 14 22 29.64 1004 10 16.0934 0.06 1.524
5:43 pm 17:43 Mostly Cloudy with Nearby Thunderstorms 48 8.9 36 2.2 63 63 W 17 28 29.66 1004 10 16.0934 0 0
5:52 pm 17:52 Mostly Cloudy with Light Rain 47 8.3 36 2.2 66 66 WNW 17 28 29.66 1005 10 16.0934 0 0.0254
6:15 pm 18:15 Partly Cloudy 48 8.9 32 0 54 54 NW 18 30 29.68 1005 10 16.0934 0 0.0254
6:52 pm 18:52 Mostly Cloudy 48 8.9 29 -1.7 48 48 NW 22 35 29.7 1006 10 16.0934 0 0.0254
7:52 pm 19:52 Mostly Clear 45 7.2 28 -2.2 52 52 WNW 13 20 29.75 1008 10 16.0934 0 0
8:52 pm 20:52 Mostly Clear 45 7.2 23 -5 42 42 WNW 20 31 29.78 1009 10 16.0934 0 0
9:52 pm 21:52 Mostly Clear 44 6.7 23 -5 43 43 WNW 15 24 29.82 1010 10 16.0934 0 0
10:52 pm 22:52 Mostly Clear 43 6.1 24 -4.4 47 47 NW 24 39 29.83 1010 10 16.0934 0 0
11:52 pm 23:52 Mostly Clear 42 5.6 25 -3.9 51 51 WNW 22 35 29.86 1011 10 16.0934 0 0

Powered by AerisWeather